User: anonymous   Login
Location: Unspecified
(0.0000°N, 0.0000°E)
Time: 11:52:18
(UTC+00:00)
Language:

SUCHAI - Orbit

View from above orbital plane
View from above orbital plane
View from above satellite
View from above satellite

Ground track
Ground track

The orbit data is extracted from the following two-line orbital elements,

1 42788U 17036Z   18168.92700145 +.00001059 +00000-0 +49441-4 0  9999
2 42788 097.4012 228.7884 0013680 076.5334 283.7425 15.21931860054702
Epoch (UTC): 17 June 2018 22:14:52
Eccentricity: 0.0013680
inclination: 97.4012°
perigee height: 490 km
apogee height: 509 km
right ascension of ascending node: 228.7884°
argument of perigee: 76.5334°
revolutions per day: 15.21931860
mean anomaly at epoch: 283.7425°
orbit number at epoch: 5470

The dashed part of the orbit path shows where the satellite is in the earth's shadow,  

DLR